This is the latest recevied weather packets stored in our database for station/object KI7CSN-13. If no packets are shown the sender has not sent any weather packets the latest 10 day(s).
| Time | Temp. | Humidity | Pressure | Rain* | Wind** | Luminosity | Snow |
|---|---|---|---|---|---|---|---|
| 1778064458 | 7.22° C | 61% | 982.8 hPa | 0 mm | - | - | - |
| 1778064158 | 7.22° C | 63% | 982.8 hPa | 0 mm | - | - | - |
| 1778063858 | 6.67° C | 65% | 982.6 hPa | 0 mm | - | - | - |
| 1778063559 | 7.22° C | 64% | 982.6 hPa | 0 mm | - | - | - |
| 1778063258 | 6.67° C | 58% | 982.6 hPa | 0 mm | - | - | - |
| 1778062958 | 7.78° C | 54% | 982.6 hPa | 0 mm | - | - | - |
| 1778062659 | 8.33° C | 59% | 982.5 hPa | 0 mm | - | - | - |
| 1778062359 | 8.33° C | 57% | 982.6 hPa | 0 mm | - | - | - |
| 1778062059 | 8.33° C | 58% | 982.5 hPa | 0 mm | - | - | - |
| 1778061759 | 9.44° C | 56% | 982.5 hPa | 0 mm | - | - | - |
| 1778061458 | 9.44° C | 56% | 982.5 hPa | 0 mm | - | - | - |
| 1778061159 | 9.44° C | 54% | 982.5 hPa | 0 mm | - | - | - |
| 1778060859 | 9.44° C | 55% | 982.5 hPa | 0 mm | - | - | - |
| 1778060559 | 9.44° C | 55% | 982.4 hPa | 0 mm | - | - | - |
| 1778060259 | 9.44° C | 54% | 982.4 hPa | 0 mm | - | - | - |
| 1778059959 | 9.44° C | 51% | 982.4 hPa | 0 mm | - | - | - |
| 1778059659 | 9.44° C | 51% | 982.4 hPa | 0 mm | - | - | - |
| 1778059359 | 9.44° C | 51% | 982.4 hPa | 0 mm | - | - | - |
| 1778059059 | 9.44° C | 50% | 982.3 hPa | 0 mm | - | - | - |
| 1778058759 | 9.44° C | 50% | 982.4 hPa | 0 mm | - | - | - |
| 1778058459 | 9.44° C | 50% | 982.4 hPa | 0 mm | - | - | - |
| 1778058159 | 9.44° C | 49% | 982.4 hPa | 0 mm | - | - | - |
| 1778057859 | 9.44° C | 48% | 982.3 hPa | 0 mm | - | - | - |
| 1778057559 | 10° C | 46% | 982.2 hPa | 0 mm | - | - | - |
| 1778057259 | 10° C | 46% | 982.3 hPa | 0 mm | - | - | - |
* Rain latest hour (hover to see other rain measurements)
** Current wind speed in m/s (hover to see current wind gust speed)